User: anonymous   Login
Location: Azul
(36.7830°S, 59.8500°W)
Time: 09:08:22
(UTC-03:00)
Language:

DIWATA 2B (PO-101) - Orbit

View from above orbital plane
View from above orbital plane
View from above satellite
View from above satellite

Ground track
Ground track

The orbit data is extracted from the following two-line orbital elements,

1 43678U 18084H   24261.20125721  .00009217  00000-0  82566-3 0  9993
2 43678  98.0825  61.9826 0010310  87.8580 272.3821 14.96006305320672
Epoch (UTC): 17 September 2024 04:49:48
Eccentricity: 0.0010310
inclination: 98.0825°
perigee height: 572 km
apogee height: 586 km
right ascension of ascending node: 61.9826°
argument of perigee: 87.8580°
revolutions per day: 14.96006305
mean anomaly at epoch: 272.3821°
orbit number at epoch: 32067

The dashed part of the orbit path shows where the satellite is in the earth's shadow,  

DLR